Wind_Gust
10 10 10 7 6 5 8 16 17 14 10 12 8 7 17 5 8 9 9 11 15 8 9 8 9 10 14 11 14 13 9 15 9 19 13 9 15 23 20 24 24 24 24 24 21 22 20 19 21 21 21 22 22 21 21 20 20 19 19 18 17 17 17 17 17 17 17 16 16 16 16 16 15 15 15 16 16 15 14 15 16 16 17 17 18 19 19 19 19 19 20 21 21 21 20 20 20
7 10 6 6 7 7 6 7 13 6 11 9 14 6 13 8 9 12 8 8 7 10 11 16 17 20 21 22 20 13 13 13 8 10 9 15 20 18 20 23 23 24 22 23 22 21 20 20 21 21 22 22 21 21 20 20 19 19 19 18 17 17 16 17 17 17 17 16 17 16 15 15 15 15 16 16 14 14 12 15 16 17 16 17 17 17 19 19 19 19 20 20 20 21 20 20 19
9 11 8 6 8 11 11 9 17 8 14 19 17 17 6 10 18 9 9 9 12 14 8 8 10 9 8 8 12 11 10 7 11 13 17 17 24 19 21 22 21 23 22 22 22 22 20 19 19 20 22 22 22 21 20 19 18 18 19 18 18 17 16 17 16 16 16 16 16 16 16 15 15 15 16 15 15 14 13 13 16 16 16 17 16 17 17 18 18 18 19 19 19 20 19 18 17
5 8 6 8 6 11 7 10 7 15 19 15 18 11 12 15 14 6 8 9 16 9 8 9 11 9 10 16 12 11 12 11 8 16 25 24 18 21 22 21 20 21 21 22 20 21 19 20 17 21 23 22 22 22 20 19 19 19 19 18 17 16 15 16 15 16 16 16 16 16 16 16 16 16 16 16 15 14 13 14 15 16 17 17 17 17 17 17 18 18 19 18 18 18 17 16 14
6 6 7 9 11 9 10 9 8 11 20 15 20 10 11 11 6 6 10 11 9 8 9 9 11 11 12 12 7 8 10 12 14 10 23 15 16 20 21 20 20 20 20 21 20 21 20 19 17 18 21 22 22 21 20 19 19 18 17 16 16 15 14 15 14 15 16 16 16 16 16 16 16 16 16 16 15 15 15 15 14 16 16 17 18 17 17 16 16 17 17 17 17 17 16 14 13
7 5 7 5 8 11 14 11 11 16 14 14 13 12 8 11 9 8 10 9 6 7 7 10 8 10 9 10 7 13 13 15 13 10 20 14 21 20 21 19 20 20 18 18 19 19 23 18 17 18 20 22 22 21 20 19 18 17 16 17 17 15 15 15 14 16 16 16 17 17 17 16 15 16 16 16 15 15 15 15 16 15 16 17 17 17 17 16 16 17 16 16 17 16 14 13 11
5 10 15 10 10 10 13 14 17 13 18 10 13 9 7 8 9 6 10 10 6 12 8 10 15 14 17 11 15 14 11 7 15 13 12 20 21 21 21 20 19 20 19 19 19 20 23 16 16 17 19 20 21 21 20 19 18 17 17 16 15 15 15 15 14 15 16 16 16 17 17 16 16 16 16 16 15 15 16 16 16 17 16 17 18 18 18 18 17 16 16 16 16 14 13 12 12
6 10 9 9 11 10 11 8 13 12 14 11 7 9 9 7 6 7 7 6 9 7 9 12 10 10 10 6 10 9 14 11 13 17 20 22 21 22 21 20 22 21 21 18 19 20 22 15 16 17 19 20 21 20 20 19 18 18 16 14 14 14 14 14 14 15 15 16 16 17 18 17 17 16 16 15 15 15 15 16 16 16 16 17 17 17 17 17 16 16 15 15 13 13 13 14 14
11 13 7 11 12 13 8 13 14 8 15 9 12 12 12 9 7 9 14 8 5 8 13 13 11 9 11 11 12 8 11 11 17 20 21 22 22 21 23 21 22 23 21 21 21 20 21 16 15 16 18 20 20 20 19 18 18 17 16 15 13 11 13 14 15 15 15 15 16 17 17 17 17 16 15 15 15 14 15 15 16 16 15 16 16 16 16 16 15 15 15 14 12 12 13 14 15
9 9 9 12 10 15 8 13 11 12 15 9 13 18 13 10 10 10 15 11 10 14 11 7 7 11 13 13 15 10 10 15 19 20 20 20 20 20 21 20 21 23 22 22 22 22 21 20 16 15 17 18 18 18 17 16 15 15 14 13 12 11 13 14 13 15 15 16 16 16 16 16 16 15 15 15 15 14 13 14 14 14 14 14 15 15 15 15 14 14 14 13 12 11 12 14 15
10 12 7 13 10 13 18 15 14 12 9 10 15 16 17 13 11 11 13 12 9 15 11 15 12 18 15 11 10 7 11 15 20 22 20 20 20 20 20 20 21 20 24 22 21 21 23 21 21 16 15 18 17 15 15 15 16 14 12 12 12 14 14 13 14 15 15 15 16 16 15 16 15 16 16 14 13 13 12 13 12 12 12 13 13 14 13 14 13 13 13 12 11 10 11 12 14
10 10 10 11 15 17 12 15 10 13 12 9 16 9 7 13 11 11 14 14 13 15 17 20 21 23 16 17 13 10 12 14 19 20 20 21 20 19 19 20 19 20 22 23 22 21 21 22 21 21 19 18 17 16 15 16 15 13 12 13 12 12 12 11 14 14 13 14 14 15 15 15 15 15 14 13 12 12 12 11 11 11 11 11 12 12 12 13 13 12 12 11 11 10 10 11 11
11 7 11 11 11 10 8 8 9 7 10 13 13 8 7 10 16 19 18 19 17 17 16 16 24 13 17 15 12 11 13 15 18 20 21 21 20 20 20 21 21 20 21 22 22 22 21 20 22 21 20 20 18 17 16 15 15 13 13 13 12 13 13 14 15 15 14 14 15 15 15 14 13 13 13 13 12 11 11 11 10 10 11 11 11 11 12 12 12 12 11 11 11 11 10 10 11
14 15 15 16 9 8 11 10 7 10 12 8 8 7 9 9 13 16 13 15 18 23 13 22 26 15 15 17 12 14 15 16 19 19 21 20 20 20 19 20 19 20 20 21 21 21 20 20 20 20 21 19 19 18 16 16 15 14 13 13 12 12 11 14 15 14 14 14 15 15 13 13 13 12 12 12 11 10 9 10 9 9 9 10 10 10 10 11 11 12 11 11 11 11 11 11 11
10 8 12 8 8 8 9 15 10 13 13 8 10 7 12 9 9 9 20 20 23 11 20 17 17 20 21 22 19 23 21 20 20 19 20 19 19 19 19 20 20 20 20 20 20 20 19 19 19 19 17 18 18 17 16 17 16 15 13 14 12 12 12 15 16 14 15 13 14 14 14 13 12 12 11 10 10 9 9 8 9 8 8 8 9 9 10 10 11 11 11 11 12 11 11 12 10
12 12 9 14 12 12 12 14 7 8 18 10 8 7 10 6 6 12 16 14 19 12 23 21 8 11 14 20 16 27 24 23 22 22 22 21 19 18 20 19 19 20 20 19 18 17 17 18 17 17 17 16 15 15 16 16 15 15 14 15 13 13 13 14 12 12 13 12 12 13 12 12 11 14 11 12 10 9 7 8 8 7 7 7 8 9 9 9 10 11 11 11 12 12 12 11 9
7 11 12 10 16 14 13 14 14 14 12 9 9 10 16 11 7 7 8 13 29 18 10 11 14 9 23 15 24 29 25 23 22 23 22 22 22 20 20 19 19 17 17 17 15 18 18 18 17 16 15 15 15 15 15 15 16 14 13 14 13 12 12 13 12 11 10 11 12 12 11 12 11 11 10 12 8 11 6 6 7 7 6 7 8 7 8 9 10 9 11 13 14 14 11 10 10
9 16 13 15 11 15 11 15 17 8 9 11 10 8 11 8 8 12 18 17 16 17 14 13 15 15 16 22 29 29 25 26 24 24 22 22 21 22 22 21 21 20 20 17 16 16 18 16 16 16 17 15 15 15 15 13 15 13 13 14 14 14 12 11 12 12 10 13 11 11 11 11 10 9 8 8 8 8 8 5 6 6 6 7 6 6 7 7 8 9 11 13 13 13 11 12 12
16 9 13 21 14 14 11 10 10 8 12 10 13 8 7 11 15 13 18 18 24 22 16 16 20 21 22 25 29 27 27 25 24 22 23 23 23 23 22 21 19 19 18 18 17 16 16 16 15 15 15 15 14 14 14 14 14 14 13 13 14 10 13 12 12 12 10 11 11 11 10 9 9 8 8 7 6 4 9 8 6 6 7 8 10 9 9 10 10 10 11 12 12 11 9 10 10
10 13 19 16 13 9 10 9 11 13 12 17 15 10 7 10 8 13 14 23 22 25 28 17 23 25 26 28 29 27 27 26 22 22 22 21 21 22 21 20 20 18 18 17 19 16 17 16 15 15 14 14 14 14 14 13 13 12 12 12 13 13 12 12 11 10 10 10 10 9 9 9 8 6 6 7 4 7 7 7 8 8 8 8 11 8 9 9 9 9 9 9 8 8 9 10 9
11 14 19 10 11 12 12 14 16 14 7 11 8 11 10 12 6 14 21 19 21 15 22 32 32 31 31 28 30 28 27 24 23 22 20 19 18 19 20 19 19 18 17 19 16 17 16 15 15 14 14 14 13 14 13 13 12 12 11 11 12 11 12 12 11 10 9 9 9 9 9 8 8 7 6 7 9 8 7 6 7 8 9 9 8 10 10 11 9 9 9 8 9 9 9 9 8
13 14 8 9 9 11 12 12 9 8 5 6 6 12 7 9 11 15 24 21 26 30 21 12 28 35 36 34 30 28 26 24 22 21 20 19 19 19 18 19 17 16 18 17 16 16 15 15 14 15 14 12 12 13 13 14 13 12 11 11 11 11 11 11 11 10 9 8 7 7 6 7 6 6 6 8 9 10 9 9 8 7 8 9 9 10 9 9 9 9 9 9 8 8 8 7 7
19 8 9 10 10 14 6 6 6 8 8 9 14 8 6 12 11 17 18 12 11 12 12 16 24 27 29 31 32 29 26 24 22 20 19 18 17 18 18 19 19 18 18 16 15 14 16 14 14 14 14 13 12 13 13 13 11 12 11 12 12 12 11 11 10 10 8 7 7 6 6 6 7 7 7 8 9 9 9 8 8 7 7 9 10 10 9 8 8 9 9 9 8 7 9 9 8
12 14 7 9 8 15 8 12 6 10 7 13 12 5 12 14 16 14 8 10 10 16 18 22 24 23 25 29 25 26 25 23 20 19 17 17 17 18 18 19 18 16 16 16 15 15 16 15 14 13 14 13 12 12 12 12 10 12 11 12 11 10 10 10 10 9 8 8 7 6 6 7 7 7 8 8 8 7 8 9 8 7 8 9 9 10 9 9 8 7 8 9 10 8 8 9 8
17 17 7 10 8 11 14 11 10 11 14 15 8 11 12 17 17 16 8 12 14 18 22 24 25 24 23 25 26 25 22 19 18 16 14 16 17 17 15 16 17 17 17 17 16 16 14 15 14 14 13 13 12 12 12 10 10 10 9 10 10 9 9 8 8 8 8 7 7 7 6 6 7 7 7 9 9 9 8 8 9 9 9 10 10 9 8 9 8 7 7 8 8 9 9 9 8
13 12 6 7 11 9 10 9 12 14 11 10 11 11 10 14 18 13 8 15 15 20 23 23 23 24 25 23 22 22 19 18 17 17 17 17 18 18 16 17 18 16 17 17 17 15 15 13 14 13 13 13 13 13 12 12 11 10 9 9 8 9 8 7 7 7 7 7 7 7 7 7 7 9 9 8 9 10 10 9 10 10 10 10 10 11 9 8 9 8 8 8 10 9 9 9 10
10 13 14 15 13 9 9 11 8 5 8 9 11 11 13 10 9 12 6 15 18 19 22 22 21 24 21 18 19 16 17 17 18 18 17 16 18 18 17 17 17 16 16 17 16 16 15 14 13 13 13 13 12 13 13 12 11 10 9 8 8 7 7 7 6 6 6 6 6 6 7 7 8 9 9 9 8 8 8 9 10 11 11 11 10 10 9 9 8 8 9 10 9 10 10 10 11
8 8 5 10 12 10 12 8 13 7 12 13 17 13 6 9 6 14 13 17 18 22 23 23 21 19 17 16 15 16 15 15 16 17 18 18 19 18 19 20 17 17 17 17 16 15 15 13 13 13 12 12 12 12 12 12 11 10 8 8 8 8 7 6 6 5 5 6 6 7 8 8 8 8 8 8 8 8 7 7 8 8 9 10 9 10 10 9 10 10 10 9 9 9 10 10 10
6 8 9 9 9 18 10 15 8 13 10 13 17 16 8 11 9 16 16 18 20 22 23 24 23 21 21 18 17 15 16 16 14 15 15 15 15 16 19 17 19 17 14 16 17 16 15 13 13 12 11 11 11 11 11 11 10 9 8 7 8 8 6 6 6 6 7 7 7 7 8 9 8 9 9 9 9 8 7 8 7 7 7 7 7 9 10 9 10 10 10 9 10 9 10 11 11
8 7 6 8 10 16 11 6 6 10 8 17 18 14 12 9 9 12 9 22 22 23 24 21 23 25 25 22 20 18 16 17 16 15 16 15 15 15 18 18 17 16 18 16 16 16 14 12 12 11 10 11 10 10 9 9 9 8 8 7 7 7 6 6 7 8 8 8 8 9 9 10 10 9 9 9 9 9 8 7 7 6 6 7 7 10 11 10 10 11 12 12 9 11 12 11 11
18 8 9 8 10 15 7 8 10 11 7 15 6 10 15 9 10 10 10 20 23 25 26 25 25 23 21 16 17 19 18 14 16 16 14 13 14 16 16 17 17 14 16 16 16 15 14 13 11 10 10 10 10 9 9 9 8 9 8 7 7 6 7 8 8 9 9 10 11 11 11 11 11 10 10 9 8 8 9 9 8 8 9 9 10 9 10 11 11 12 12 13 12 13 13 14 15
6 16 17 8 13 12 13 7 11 16 11 9 8 9 11 11 13 13 13 17 22 24 25 26 26 27 23 16 20 16 15 15 14 13 12 12 12 16 17 18 18 15 17 16 16 15 14 12 11 10 10 10 9 9 9 9 9 9 8 7 8 8 10 10 11 11 10 10 12 12 12 11 11 11 10 9 9 8 8 9 10 9 9 8 7 7 7 8 11 11 10 10 13 14 14 14 14
9 16 6 13 9 10 12 9 8 12 19 10 9 12 9 13 16 17 18 18 16 18 17 23 28 26 23 17 18 16 15 15 13 13 13 11 11 12 15 18 20 17 15 16 15 15 14 12 11 10 10 10 10 10 10 9 10 10 9 9 11 12 12 11 9 9 9 9 9 11 11 12 12 12 12 11 10 10 10 10 9 9 8 8 8 6 7 8 10 11 11 9 10 13 16 15 15
19 7 13 10 14 10 11 12 10 13 9 14 8 16 16 18 18 19 21 20 20 21 21 20 24 22 19 16 16 17 12 13 15 12 12 11 12 12 13 13 15 15 13 14 14 14 13 11 11 10 10 10 10 9 10 11 11 11 11 12 12 14 13 11 9 9 9 8 9 10 11 11 12 12 12 12 11 11 11 11 11 10 10 9 10 9 9 8 9 9 12 11 12 13 15 15 16
23 18 14 11 7 6 8 12 12 8 15 16 15 24 21 23 25 25 22 24 25 23 21 19 23 22 19 20 18 17 13 14 13 12 13 14 14 14 13 13 13 14 15 15 14 13 13 14 14 12 13 11 10 11 10 10 10 11 12 12 14 15 14 12 11 12 10 10 11 11 11 10 11 11 12 12 12 13 13 12 12 11 10 9 9 9 9 9 9 9 10 13 11 11 13 14 15
14 17 17 8 15 14 8 9 10 11 16 17 13 22 19 20 20 24 27 25 23 23 22 23 20 19 19 18 20 20 18 15 12 13 14 13 13 14 13 14 14 14 14 15 15 14 14 14 12 12 12 12 10 10 11 11 11 12 13 14 17 17 14 12 13 13 13 13 11 10 9 9 9 10 11 12 10 10 9 11 11 11 10 10 11 11 12 12 13 14 13 13 13 13 12 12 13
10 8 9 7 8 11 8 7 8 10 17 19 20 21 18 18 18 19 19 23 21 21 20 20 19 18 17 18 18 19 16 15 12 15 14 14 16 15 16 16 17 17 15 15 16 15 14 13 14 13 11 10 12 12 11 11 13 15 17 18 16 14 13 14 15 14 14 13 14 13 11 10 9 10 11 10 12 10 10 10 10 10 11 11 11 12 11 12 12 13 14 12 12 15 13 11 12
11 11 10 10 7 11 9 9 13 12 14 12 18 24 18 17 19 17 15 21 18 19 21 18 17 15 15 19 20 18 16 16 15 15 15 15 16 14 16 17 15 16 15 17 16 15 15 14 15 13 12 12 12 11 11 13 12 14 16 16 15 14 14 16 16 15 15 17 17 16 16 15 14 13 13 13 12 12 11 10 11 10 10 10 10 10 11 11 12 13 13 13 11 14 13 11 14
7 10 10 10 10 7 11 14 12 12 22 18 20 24 18 16 16 13 13 15 18 14 18 22 21 19 21 16 18 17 14 15 16 15 14 15 16 18 19 15 16 16 16 17 16 16 15 15 15 13 13 14 13 13 13 14 13 12 14 14 14 17 15 16 19 15 15 18 18 17 18 17 17 16 14 12 11 11 12 12 12 12 12 12 12 13 12 12 13 13 13 14 15 13 14 11 11
8 10 12 16 8 10 13 18 15 15 14 24 22 26 20 16 18 18 13 15 18 17 20 21 23 20 16 13 16 16 14 16 14 13 13 14 17 17 16 15 14 15 16 15 16 17 17 16 14 14 14 13 14 14 16 16 17 17 17 17 15 15 14 16 16 15 16 18 20 19 18 16 16 17 16 16 16 15 14 14 12 13 14 13 11 12 13 14 13 13 14 14 14 16 15 13 12
5 7 8 10 8 7 8 15 23 25 24 24 26 24 15 10 14 16 13 14 19 19 22 21 18 20 19 18 17 14 14 15 13 14 13 14 18 17 16 11 13 18 17 16 14 14 14 15 14 13 14 15 15 14 16 17 18 17 17 15 13 13 12 12 14 18 17 16 18 19 18 17 17 18 18 18 17 17 16 14 13 13 14 13 11 12 13 15 14 13 13 14 14 15 17 15 15
11 7 10 9 9 14 14 16 11 11 16 13 9 18 10 12 15 16 13 17 16 18 23 23 23 22 20 20 18 15 14 14 11 12 13 14 19 15 14 13 19 18 17 16 14 15 14 14 14 13 14 14 13 10 10 14 13 12 12 13 14 14 17 18 18 15 14 15 16 14 16 17 17 17 18 19 18 17 17 16 16 16 16 16 16 16 15 15 14 15 15 14 16 15 16 19 20
13 15 12 9 11 14 17 12 8 11 15 18 7 12 15 10 13 12 14 17 16 16 18 21 24 22 20 20 17 17 14 13 12 12 13 15 15 17 12 15 14 17 16 12 13 14 15 14 13 14 15 14 13 13 11 14 15 16 16 17 16 16 17 15 13 13 13 14 14 15 16 16 18 18 18 18 17 16 16 16 16 16 16 15 16 15 16 15 16 17 17 16 18 17 16 18 17
22 7 16 14 14 15 12 11 8 11 10 11 7 11 19 15 14 13 14 18 19 17 17 19 22 22 22 19 19 17 17 14 16 13 13 14 13 14 14 14 14 15 13 14 14 12 14 13 14 15 15 16 14 13 16 14 15 14 16 16 17 16 15 14 12 13 13 13 15 15 15 17 18 19 19 19 19 18 17 17 17 17 16 17 17 16 17 16 16 16 16 16 19 19 17 17 18
13 11 16 17 15 10 14 9 13 11 13 13 9 7 16 14 14 14 18 19 19 20 19 20 22 23 22 21 23 20 18 13 15 18 15 15 13 13 11 16 12 14 12 14 14 12 13 15 15 16 18 16 16 17 17 17 15 13 14 15 17 15 13 12 11 14 14 13 14 16 17 16 17 18 20 19 19 19 19 18 17 18 18 19 18 18 17 18 18 17 16 18 17 18 18 19 20
7 13 10 12 12 11 9 11 15 11 8 11 16 14 15 12 14 19 17 20 24 26 24 23 23 23 23 22 19 23 21 20 16 17 16 14 12 11 10 15 15 14 12 15 14 12 13 14 18 19 18 17 15 18 19 18 17 15 16 16 16 15 12 13 14 16 15 14 15 16 15 17 17 18 18 19 20 20 20 19 18 19 20 18 18 18 18 19 18 17 17 16 16 15 17 16 16
15 16 16 12 11 9 9 11 9 9 11 12 19 16 13 18 22 25 25 29 30 27 24 21 21 20 20 19 23 24 23 23 22 17 14 14 12 11 11 14 14 13 12 14 15 15 14 16 17 19 15 16 18 19 19 19 17 17 18 17 17 16 15 15 16 17 16 16 17 17 17 17 17 19 19 20 21 21 20 21 19 18 18 17 17 17 17 17 16 16 16 16 16 17 16 17 15
21 15 14 19 11 9 9 8 9 15 15 10 15 21 12 18 18 23 26 10 24 30 31 29 25 22 21 20 20 21 20 23 24 20 16 15 17 12 10 13 12 13 13 15 14 14 15 15 17 19 18 18 18 19 20 19 18 18 18 18 19 18 17 18 18 17 17 17 16 16 15 16 18 19 20 20 23 22 21 20 19 18 20 20 20 18 17 17 16 16 16 17 17 16 17 17 16
17 16 19 22 17 16 17 14 17 20 15 9 7 12 11 18 15 25 32 23 27 25 31 34 30 25 22 19 18 18 20 21 20 19 16 14 16 13 13 13 12 12 13 15 16 15 15 17 18 21 20 18 19 19 19 18 19 18 18 18 17 18 19 19 18 18 16 17 17 17 17 18 19 20 22 22 22 22 22 21 21 21 20 19 19 18 18 18 18 16 16 17 18 18 18 19 18
17 27 23 27 23 22 19 14 12 9 11 7 8 7 14 10 10 10 19 25 25 26 24 28 29 27 25 23 20 19 20 19 20 19 16 15 12 12 14 13 13 13 13 14 15 15 14 16 18 22 20 18 18 18 18 20 20 19 18 18 17 18 19 19 18 18 17 17 17 18 19 19 20 20 21 21 21 21 22 19 19 19 19 19 20 19 19 18 19 19 17 19 19 18 19 18 18
18 9 23 20 17 25 22 20 22 13 14 9 7 19 17 17 9 9 8 13 22 26 24 24 24 24 24 24 23 21 19 18 20 19 19 17 15 12 13 14 14 15 15 15 14 14 15 17 18 21 20 18 18 17 18 20 19 19 18 18 17 17 18 19 19 18 18 18 19 20 20 20 20 20 21 20 20 20 19 19 20 20 21 20 20 21 21 19 20 19 18 21 21 19 20 21 19
10 9 13 15 24 12 13 13 14 15 17 11 15 16 8 9 10 9 11 21 25 27 26 27 26 24 24 24 23 21 20 22 22 21 17 14 15 13 13 13 13 15 15 15 14 14 17 17 18 19 19 17 18 18 18 19 19 19 19 19 18 19 19 18 20 20 21 20 21 21 22 21 20 19 20 20 19 19 20 20 20 21 20 20 20 20 20 20 19 20 21 22 22 22 22 22 21
22 14 26 16 12 15 14 6 9 6 8 12 11 9 9 6 7 12 19 25 25 25 26 27 26 26 24 24 23 22 22 21 21 22 19 16 14 14 15 15 15 16 15 14 14 14 15 17 19 19 18 17 18 18 18 18 19 20 20 19 19 20 20 20 22 21 21 21 21 22 23 22 20 21 20 19 18 19 19 19 19 20 20 20 20 20 20 20 19 18 22 21 22 22 22 21 22
22 28 20 12 9 12 12 12 7 8 17 16 10 16 13 16 16 15 20 24 23 25 26 25 25 27 26 25 24 24 23 21 17 18 18 18 16 16 16 15 16 18 17 17 16 13 14 15 17 20 19 19 17 18 18 18 19 19 19 20 20 21 22 21 22 22 21 22 22 22 21 23 22 21 21 19 18 18 18 19 20 20 20 20 20 20 21 20 19 20 22 20 21 22 21 21 21
22 16 16 29 19 21 10 14 11 13 15 14 9 13 15 20 14 23 26 26 26 27 28 27 27 26 26 25 26 25 24 24 24 19 19 18 18 17 16 16 17 18 17 18 18 17 17 16 16 19 19 18 17 17 17 18 17 18 21 21 20 21 21 22 23 23 22 24 24 23 22 21 21 21 20 18 18 19 19 19 19 20 20 21 21 21 21 21 22 23 23 22 22 23 22 22 21
8 14 26 12 13 12 20 24 12 14 9 9 11 13 18 21 19 29 32 31 33 32 30 31 31 29 29 27 28 28 26 25 24 20 20 21 19 18 18 19 19 18 17 18 18 17 18 17 18 19 19 19 18 18 18 19 18 19 20 21 20 21 22 23 23 23 25 24 23 22 21 21 21 19 18 18 18 19 19 19 19 20 21 21 21 21 21 20 21 24 23 22 23 23 23 22 22
18 23 22 17 15 9 14 11 12 14 17 13 14 16 19 18 25 33 37 38 37 38 36 29 27 27 25 26 27 27 27 27 23 20 21 21 20 19 18 17 18 18 17 17 17 18 17 16 17 19 20 19 18 17 18 18 18 20 19 20 21 21 21 22 22 22 22 22 21 21 20 18 18 19 18 19 20 20 19 19 20 21 21 21 22 23 22 21 21 24 24 22 23 25 24 23 24
25 26 21 19 16 18 21 19 11 12 14 14 14 21 12 12 9 25 31 30 31 28 27 27 26 25 26 27 26 28 28 24 21 20 18 20 18 18 17 17 17 18 18 18 17 17 16 15 17 18 19 18 18 19 19 19 18 19 19 19 19 19 20 21 21 21 22 23 22 21 19 18 18 19 18 20 21 19 19 20 20 21 21 22 22 22 22 23 25 25 24 23 25 26 25 24 24
Wind_Speed
4 5 5 2 1 1 1 5 5 1 1 4 2 2 5 1 2 2 3 5 6 3 3 1 2 3 4 2 3 5 3 7 1 5 0 2 8 13 12 15 15 15 14 13 11 12 12 12 14 17 17 17 17 17 17 16 15 15 14 13 13 12 12 12 12 12 12 12 12 12 12 11 11 11 11 10 11 10 11 12 12 12 13 14 14 15 15 15 15 15 15 15 15 15 15 16 16
2 5 2 2 2 2 2 2 2 1 1 3 5 2 5 3 4 6 2 3 1 3 4 7 9 9 9 11 9 6 5 6 3 3 3 7 11 9 12 15 15 16 14 12 12 11 12 12 14 17 18 17 17 17 17 15 14 15 14 13 13 13 12 12 12 12 12 12 13 13 12 12 11 11 11 11 10 9 9 11 12 13 12 13 13 14 15 15 15 15 15 16 15 15 14 14 14
3 5 1 1 2 4 4 1 5 2 6 8 4 6 3 5 11 4 3 0 7 8 3 3 4 3 2 2 4 4 3 2 5 6 7 10 13 9 13 14 14 15 14 12 11 12 10 12 12 16 18 18 17 17 16 15 14 14 14 13 13 13 12 12 13 12 11 11 12 12 13 12 12 11 11 11 10 10 9 10 12 12 12 13 13 13 14 14 14 14 15 15 14 15 14 13 11
0 3 1 1 2 1 2 2 2 5 7 6 6 4 5 8 8 1 3 4 9 3 2 2 0 3 4 3 3 5 5 3 3 9 8 10 7 11 12 14 13 12 12 11 10 11 10 13 13 16 18 18 17 17 16 16 15 15 14 13 13 13 12 12 12 12 12 12 13 13 12 13 13 12 12 12 11 11 11 11 12 12 13 13 13 12 12 13 12 13 14 14 13 13 12 11 10
2 1 2 2 2 2 2 1 1 3 9 4 7 3 6 5 0 0 5 6 4 3 4 3 3 4 5 6 1 1 3 5 7 4 8 6 8 11 13 13 12 11 11 12 10 11 12 16 14 14 17 17 18 17 16 15 15 15 13 12 13 12 11 11 12 12 12 12 13 13 13 13 13 13 12 12 12 12 13 12 11 13 13 13 14 13 13 12 12 13 13 12 12 12 11 10 8
1 0 2 1 1 2 3 3 3 7 5 4 5 3 3 3 4 3 5 2 0 1 2 5 1 4 1 4 2 4 6 5 6 4 9 7 13 13 13 12 11 11 11 10 10 10 12 15 14 15 16 17 18 17 16 15 15 14 12 12 13 12 11 11 11 12 12 13 14 14 14 13 13 13 12 12 12 12 12 12 14 12 13 13 13 13 13 13 12 13 12 12 12 11 9 8 6
0 2 4 3 3 1 4 6 8 5 5 3 3 3 1 3 1 1 1 3 1 5 2 3 8 7 5 3 6 5 4 1 7 5 6 12 13 14 13 11 11 12 12 10 10 11 14 13 13 14 15 16 17 17 16 15 14 13 13 12 12 12 11 11 11 12 12 12 13 14 14 13 13 13 13 13 12 12 13 13 13 14 13 13 14 14 14 13 13 12 11 12 11 9 8 7 7
1 2 1 2 2 1 3 2 5 3 1 4 1 4 3 1 2 2 1 2 2 2 4 6 4 3 5 1 1 3 6 4 6 9 12 13 14 14 13 12 13 13 12 10 11 11 16 13 13 14 15 16 16 16 15 15 14 13 13 12 12 11 11 11 11 12 12 12 13 14 15 14 14 13 12 12 12 12 12 13 12 13 13 14 13 13 13 13 12 11 11 11 10 9 8 9 9
3 3 1 1 4 2 1 5 4 1 5 3 5 7 8 4 3 4 7 3 0 2 6 6 5 3 4 4 4 3 4 4 9 12 13 14 14 14 11 13 13 12 13 12 11 12 13 14 13 13 15 15 16 16 15 14 14 12 11 11 10 9 10 11 12 13 12 12 13 14 14 14 14 13 12 12 12 12 12 12 13 12 12 13 13 13 13 12 12 11 10 10 9 9 9 9 10
3 2 3 1 2 6 2 3 3 3 6 3 7 11 5 3 5 5 9 5 4 7 5 2 1 4 7 6 6 4 4 7 11 13 13 13 13 13 13 12 13 15 13 13 12 12 11 16 13 13 14 15 15 14 14 12 12 11 11 10 10 9 11 11 10 12 12 13 13 13 13 13 13 12 12 12 12 11 11 11 11 11 11 12 12 12 12 12 11 10 9 9 8 8 9 10 11
2 3 2 3 3 4 7 6 6 5 3 3 8 8 10 6 5 5 7 6 4 8 6 7 5 10 8 4 3 2 4 8 12 14 13 13 13 13 12 12 13 13 14 14 13 12 13 12 16 13 13 15 13 12 11 11 11 10 10 10 10 11 11 11 11 13 13 12 12 12 12 13 13 12 12 11 10 10 9 10 10 10 10 10 11 11 10 11 10 9 8 8 7 7 8 8 11
3 3 2 4 6 7 3 5 4 5 6 3 8 3 1 6 6 5 8 8 7 9 9 12 7 12 8 7 4 4 7 9 11 12 13 13 12 12 12 10 12 12 14 14 13 12 12 12 12 15 15 15 14 13 12 13 11 10 10 11 9 10 10 9 12 11 10 12 12 12 13 12 12 12 11 10 9 9 9 9 9 9 9 9 9 10 9 10 9 8 8 7 7 7 7 8 9
2 1 4 2 2 3 2 2 3 2 4 6 6 3 2 5 8 12 11 12 11 11 8 10 13 7 7 7 4 5 7 10 11 13 13 12 12 11 11 12 12 13 13 14 13 13 13 11 11 11 13 16 14 13 12 12 11 10 10 10 9 10 10 11 12 11 12 12 13 12 12 11 11 11 10 9 9 8 8 8 8 8 8 8 8 9 9 9 9 8 8 7 7 6 6 7 8
3 3 6 5 3 1 3 3 1 3 4 1 2 1 3 3 7 9 3 9 11 13 5 13 13 7 8 7 4 6 7 10 13 12 11 12 11 11 12 11 12 12 13 13 12 12 12 11 10 11 11 11 11 12 12 11 11 11 9 9 9 8 8 12 12 11 11 12 12 12 11 11 10 10 9 9 8 8 8 7 7 7 7 7 7 7 8 8 9 8 8 7 6 6 6 6 8
3 1 4 0 2 2 3 5 3 6 4 3 4 1 5 4 4 4 11 12 13 5 10 10 7 10 7 12 8 11 11 13 13 12 12 12 12 12 12 11 12 12 12 12 12 12 11 11 10 10 10 10 10 8 8 9 11 10 10 10 9 9 10 12 13 12 12 11 11 11 11 10 10 9 8 8 7 7 7 7 7 7 7 6 7 7 7 8 8 8 8 7 6 5 6 6 7
3 3 1 5 4 5 4 6 2 1 3 4 3 3 5 1 1 6 8 6 6 5 14 7 3 2 6 12 6 16 16 14 13 13 12 14 12 11 12 12 10 11 11 11 10 10 10 10 9 9 8 9 8 8 8 9 10 11 9 10 10 9 11 12 10 10 11 10 10 10 9 7 8 8 7 6 7 6 5 5 6 6 6 5 6 6 7 7 8 8 8 7 6 6 6 7 7
2 0 4 2 7 6 4 5 6 4 1 4 2 4 8 4 2 1 2 6 14 11 4 4 5 3 11 6 14 19 16 15 14 15 13 11 11 10 10 9 9 9 8 9 8 9 9 9 10 8 8 8 8 8 8 8 9 10 9 10 10 10 10 10 9 9 8 9 9 9 7 6 5 4 4 5 4 5 4 4 5 5 5 5 6 6 6 7 8 7 8 8 6 5 6 7 7
3 5 4 6 3 7 5 7 7 3 3 4 2 4 6 3 3 5 8 6 9 11 7 5 7 7 9 12 19 18 16 17 16 15 13 12 11 10 10 10 11 10 9 8 8 9 9 8 9 9 8 8 8 6 6 6 7 8 7 8 7 8 8 8 6 6 6 7 8 6 5 4 3 3 3 3 2 2 3 4 4 4 4 5 5 5 5 5 6 7 8 6 4 4 3 4 6
6 2 3 9 5 3 4 3 5 3 5 5 7 3 3 5 8 4 6 11 14 12 8 9 9 11 13 15 19 18 17 16 16 14 15 14 12 14 11 11 9 10 9 9 8 8 8 8 8 8 8 8 8 7 6 6 7 6 6 6 6 7 7 6 6 5 4 5 5 4 3 3 3 2 2 2 1 2 4 6 4 4 6 6 7 7 7 8 7 7 8 5 4 1 3 3 3
2 4 7 6 4 3 4 3 5 7 7 10 9 4 3 4 3 6 6 14 14 15 14 9 12 15 16 18 19 18 17 16 15 14 14 13 13 13 12 11 11 9 10 8 9 7 8 7 8 8 8 8 7 6 6 6 6 6 5 5 6 6 5 5 5 4 4 4 4 3 3 3 2 1 2 2 2 2 2 2 5 5 5 5 7 3 3 5 4 5 6 3 1 1 3 3 3
3 4 7 2 5 5 6 8 10 7 3 6 3 5 2 6 1 6 10 10 12 7 11 14 20 19 20 19 20 18 17 16 15 14 13 12 11 10 10 11 10 9 7 9 8 8 8 8 8 7 7 7 7 6 6 6 6 5 5 5 5 5 5 5 4 4 4 4 3 3 3 3 2 2 1 2 3 2 2 1 1 3 3 3 4 3 3 3 2 2 2 2 1 1 2 3 2
5 6 2 3 3 5 6 6 3 3 1 2 1 6 1 4 4 8 14 9 8 7 13 3 13 22 24 22 20 17 17 16 15 13 13 12 12 11 10 10 10 8 9 8 8 8 8 7 7 7 7 7 6 6 6 6 6 5 5 5 5 4 5 5 5 4 4 3 2 2 1 2 1 1 2 2 3 3 3 3 2 2 2 3 3 2 2 2 2 2 2 2 2 1 1 1 2
7 2 4 4 5 7 2 1 2 4 3 4 5 3 1 6 4 9 12 5 5 2 5 7 14 16 18 20 20 19 17 16 14 13 12 12 12 11 10 10 9 10 8 8 8 7 7 7 7 7 7 6 6 6 6 6 5 5 4 5 5 5 4 4 4 4 3 2 2 1 1 0 1 1 2 3 3 3 3 2 2 2 2 3 3 3 2 1 2 2 1 1 1 1 2 2 2
5 4 2 4 4 9 4 7 3 5 4 5 2 1 6 7 9 7 3 4 1 5 10 11 12 14 16 18 16 17 16 15 13 12 11 11 12 12 10 10 9 9 8 9 7 7 7 8 7 7 7 6 6 5 6 5 5 5 5 5 4 4 3 3 3 3 3 2 2 1 1 1 1 2 2 3 3 2 3 3 2 2 2 2 3 4 2 2 1 1 2 1 0 1 1 2 1
9 7 3 4 3 6 8 6 5 6 7 3 3 6 6 10 8 9 3 3 4 7 12 15 14 15 14 15 17 16 15 12 12 10 9 9 11 11 9 8 9 9 9 9 8 8 8 7 7 7 7 7 6 6 6 5 4 4 4 4 4 4 3 2 2 3 2 2 2 1 1 1 1 2 2 3 3 3 3 3 3 3 3 3 3 3 3 3 2 1 2 2 1 1 1 1 1
6 6 2 3 6 5 4 4 7 9 2 5 3 3 4 6 12 6 3 6 6 9 13 15 15 14 14 15 14 14 13 12 11 11 10 10 11 12 10 9 9 9 9 9 8 8 7 7 8 7 7 7 6 6 5 5 5 4 4 3 3 3 2 2 2 1 1 1 1 1 1 2 2 3 3 3 3 4 4 4 3 4 4 3 4 4 3 2 2 2 2 2 3 2 3 1 2
5 8 9 10 8 5 4 6 4 1 2 5 5 5 7 3 4 4 3 9 9 11 14 14 14 14 12 11 12 10 11 10 11 10 10 10 11 11 10 10 10 9 9 9 8 8 7 7 7 7 7 7 6 6 6 5 4 4 3 3 3 2 2 2 1 1 0 0 1 1 2 2 3 3 4 3 3 3 3 3 3 4 4 4 3 3 3 3 2 2 3 3 3 3 3 3 3
4 4 1 5 7 5 7 4 8 2 4 8 10 7 1 3 1 3 7 10 11 14 15 15 14 10 9 9 9 8 8 8 9 10 11 12 9 9 11 10 10 10 10 9 8 8 7 7 7 7 6 6 6 6 5 5 4 4 3 3 3 3 2 1 1 0 1 1 2 2 2 3 3 3 3 3 3 3 2 2 2 3 3 3 3 3 3 3 4 3 3 3 3 3 3 3 3
2 4 4 3 2 8 6 8 3 7 3 7 11 9 3 5 3 8 10 11 13 15 15 15 16 13 13 10 6 6 7 8 7 7 9 8 8 8 11 10 10 9 6 9 9 9 9 7 7 6 5 5 6 6 5 5 4 3 3 2 3 2 2 1 1 2 2 3 2 2 3 3 3 3 4 4 3 3 2 2 2 2 2 1 1 3 4 3 3 3 4 3 3 3 4 4 4
3 2 1 3 5 8 5 1 1 5 3 11 10 4 4 3 5 7 4 14 14 15 15 12 12 14 12 10 10 6 4 6 6 6 8 8 8 8 11 10 10 9 8 7 9 9 7 5 5 4 5 5 5 4 4 4 3 3 2 2 2 2 1 1 3 3 3 3 3 4 4 5 4 4 4 4 3 3 2 2 2 1 2 2 3 4 4 4 4 4 4 4 4 4 5 5 4
7 3 1 2 3 5 3 0 5 6 3 2 2 2 5 4 6 6 6 13 14 15 16 13 11 12 12 9 10 8 11 5 3 7 9 8 8 7 10 10 10 8 7 8 10 9 8 7 5 4 4 5 4 4 4 4 3 3 3 2 2 2 2 3 3 4 4 4 4 4 5 5 5 4 4 4 3 3 3 3 2 3 3 4 4 4 4 5 5 5 5 5 5 4 4 4 5
1 5 6 1 5 3 1 1 5 6 4 4 2 1 4 4 7 8 7 11 15 15 15 14 14 16 14 10 8 9 4 4 4 7 8 8 8 9 9 11 11 9 11 9 9 8 7 7 6 5 5 5 5 4 4 4 4 4 3 3 3 4 4 4 4 4 4 4 5 5 6 5 5 5 5 4 3 3 3 3 3 3 4 3 3 2 2 3 5 4 4 4 5 5 5 5 4
1 7 1 5 2 1 2 4 3 6 9 4 3 2 3 6 9 11 11 11 10 9 9 14 18 17 13 9 7 8 4 3 4 5 6 5 6 7 9 11 11 10 8 8 9 8 7 7 6 6 5 6 5 5 5 4 4 4 4 4 5 6 5 4 4 4 4 4 4 4 5 5 5 5 5 4 3 3 3 3 3 3 3 4 3 2 2 3 4 4 4 4 4 5 6 7 6
7 0 4 1 7 4 3 3 5 7 4 6 2 4 8 11 10 11 11 13 13 12 11 7 11 12 11 8 9 10 7 5 5 5 5 5 5 8 7 8 9 9 7 8 8 7 7 6 5 5 5 5 4 4 5 5 5 5 5 5 6 7 6 5 4 4 4 4 4 4 5 5 5 6 6 5 5 5 5 5 4 4 4 4 3 3 3 3 4 4 6 5 5 6 6 7 7
10 8 6 4 1 1 1 1 6 3 6 8 9 14 11 9 11 9 9 12 16 15 10 6 9 8 9 11 7 11 8 5 5 5 6 7 8 8 7 8 8 8 8 9 8 7 7 7 7 7 7 6 5 5 5 5 5 5 5 6 7 8 7 6 5 5 5 5 4 5 5 5 5 5 6 6 5 6 5 5 5 5 4 3 3 3 4 4 4 4 5 6 5 5 6 7 7
7 10 8 1 7 5 2 3 5 2 9 8 6 10 10 9 9 6 5 8 14 13 13 13 11 10 8 9 10 11 10 8 6 6 7 7 7 8 7 7 7 7 8 8 9 9 8 7 6 6 6 5 5 5 4 5 4 5 6 7 8 8 7 6 6 6 5 6 5 5 4 4 4 4 5 5 5 4 4 4 5 5 5 4 5 5 5 6 7 7 7 7 7 6 5 5 6
5 3 4 1 2 5 3 3 3 4 9 10 12 13 10 8 6 6 6 5 12 13 12 11 11 10 8 7 9 10 9 8 7 8 9 9 9 8 8 8 9 9 9 9 10 8 7 7 7 7 5 5 5 4 4 4 5 7 8 8 8 7 6 7 7 6 6 6 7 7 6 4 5 5 5 5 5 4 4 4 4 5 5 5 5 5 6 6 6 6 6 5 6 7 6 5 6
6 5 5 4 2 5 4 4 6 0 4 6 11 14 10 9 5 5 5 8 11 11 13 11 10 9 5 8 10 9 6 9 9 8 8 9 9 9 9 8 9 10 8 10 10 8 7 8 8 6 5 5 5 5 5 5 5 6 7 7 7 6 6 7 7 7 7 7 8 8 7 7 6 6 6 6 6 5 5 5 5 5 5 4 5 5 5 6 6 6 6 6 5 7 6 5 6
3 4 3 3 3 3 6 8 5 5 11 8 12 14 9 8 7 4 3 8 9 8 11 13 13 11 10 6 9 8 7 8 9 8 9 9 10 11 11 8 9 10 10 10 9 10 8 8 7 7 6 6 6 6 6 6 6 6 7 6 6 7 8 8 8 7 8 8 9 9 8 8 7 7 6 6 5 5 5 6 6 5 6 5 6 6 6 7 6 7 7 6 6 6 6 4 5
3 4 5 6 3 4 5 9 8 4 3 11 13 15 10 8 8 6 5 8 10 10 13 12 11 12 9 7 6 7 8 6 7 7 7 8 8 10 9 9 9 8 8 9 9 10 8 8 7 7 7 6 6 7 8 9 9 10 10 9 8 7 7 8 8 8 8 9 10 9 8 8 8 8 7 7 6 7 7 6 6 5 5 5 5 5 6 6 6 6 7 7 6 6 6 6 5
1 2 2 3 3 2 2 6 12 15 14 15 16 11 6 4 6 5 5 7 11 11 13 12 9 12 12 9 10 9 1 3 5 5 7 8 10 8 8 6 7 9 10 9 7 7 6 7 7 7 7 8 7 7 8 9 9 9 8 8 7 7 6 6 7 8 7 8 8 9 8 9 9 9 8 9 8 7 7 6 6 5 5 6 5 5 6 6 6 6 7 7 8 7 8 6 7
4 2 4 4 5 8 8 10 5 4 7 6 4 6 2 4 7 8 7 8 9 10 14 14 14 13 13 11 12 9 6 5 4 4 7 9 12 8 6 5 11 10 10 8 8 8 7 7 7 7 7 6 6 5 4 4 5 5 4 4 4 4 6 6 8 7 6 7 7 7 8 9 9 9 9 9 9 8 8 8 8 8 8 7 7 7 7 7 7 8 7 7 8 8 7 8 9
6 5 7 4 5 9 10 6 2 4 5 8 2 1 5 4 7 6 7 11 9 9 11 13 15 13 13 12 9 9 8 7 7 7 8 8 9 10 7 9 9 11 9 6 7 8 8 7 7 7 7 6 6 6 4 5 7 7 8 8 7 6 7 6 6 6 6 6 6 7 7 8 9 9 9 9 9 9 8 8 8 8 8 7 6 6 6 6 6 7 8 8 9 8 8 8 8
8 3 10 7 8 9 6 5 3 4 4 5 2 2 7 6 6 7 9 12 12 10 10 12 13 14 12 11 10 10 10 8 9 8 7 6 8 9 8 9 8 8 8 7 7 6 8 7 7 8 7 8 7 6 7 6 7 7 8 8 8 7 7 7 6 6 6 6 7 7 6 7 9 9 9 10 10 10 9 8 8 8 7 7 6 6 7 7 6 7 7 8 8 9 9 8 9
2 6 10 10 8 5 8 3 5 4 6 5 2 1 5 4 6 8 10 10 12 12 11 12 13 14 14 12 12 13 12 9 10 11 9 9 8 8 6 9 7 8 7 8 7 6 7 8 8 9 9 9 8 9 8 9 7 6 6 6 8 7 6 5 5 5 5 5 6 6 7 7 8 9 10 10 10 10 10 9 9 8 9 8 6 6 6 7 9 8 8 8 7 7 7 9 10
1 8 5 6 6 6 2 4 6 4 2 4 7 6 3 4 7 10 10 12 14 15 15 14 14 15 14 13 12 13 13 11 10 11 10 9 7 7 6 9 9 8 7 9 8 7 7 7 10 11 11 8 7 9 10 11 9 7 7 8 9 7 5 4 5 5 5 5 7 7 7 7 7 7 8 10 11 10 10 9 8 9 9 8 7 6 7 8 8 9 8 7 7 8 6 6 6
9 10 9 6 4 3 3 3 2 3 3 5 12 9 3 5 10 12 11 11 15 15 12 11 12 13 12 12 14 14 13 14 12 10 8 9 7 7 6 8 8 8 6 8 8 8 7 8 10 12 9 7 9 10 11 11 9 9 8 9 9 8 7 6 6 7 6 7 7 8 7 7 8 9 9 9 11 10 10 9 9 8 8 7 8 8 8 7 6 7 7 8 8 8 7 8 7
13 5 5 8 4 2 2 2 1 4 3 2 9 12 6 6 7 10 13 4 13 17 19 18 16 14 12 12 11 12 12 13 14 11 9 9 11 7 6 7 7 8 8 8 7 7 8 8 9 11 10 10 10 10 11 10 9 9 10 10 10 9 8 7 8 8 8 8 8 7 6 7 8 8 9 9 11 11 9 9 9 9 9 9 9 7 7 7 7 6 7 7 8 8 8 8 8
8 7 8 10 5 3 3 3 5 6 3 3 1 6 3 8 5 13 20 14 16 14 17 20 18 16 14 12 11 10 12 13 12 11 9 8 9 7 8 8 7 7 7 8 9 8 7 8 10 12 11 10 10 11 11 11 10 10 9 10 9 8 9 9 8 9 8 8 7 8 8 8 8 9 10 10 11 11 9 9 9 9 8 8 8 8 8 9 8 6 7 8 9 9 8 9 8
9 12 10 11 7 7 4 3 2 2 0 1 2 1 4 3 1 4 11 16 16 16 15 17 19 17 16 14 12 11 11 12 11 11 9 8 7 7 8 7 7 7 7 7 8 8 7 7 8 13 12 10 10 10 10 11 11 10 10 9 8 7 8 9 8 8 8 7 7 8 9 8 9 10 10 10 10 10 9 9 9 9 9 9 9 9 9 8 9 7 7 8 10 8 9 10 9
7 3 10 8 6 4 4 5 5 4 5 3 2 7 4 8 1 3 3 7 13 15 14 15 15 15 15 15 14 13 12 11 11 11 11 10 8 7 7 8 8 8 8 8 7 7 7 7 9 12 12 10 10 10 10 11 9 10 9 9 8 7 8 9 8 8 8 9 9 10 9 9 9 9 10 9 9 9 9 9 10 9 9 9 9 9 8 8 9 7 7 8 8 8 9 10 9
3 2 3 4 9 1 4 1 3 6 6 3 4 2 2 1 3 2 4 11 15 17 16 17 16 14 14 13 13 13 12 12 12 13 11 9 9 8 7 7 7 8 9 8 8 7 8 9 10 11 11 10 10 10 10 10 10 9 11 11 10 9 9 9 9 9 10 10 10 10 11 10 10 9 9 8 9 9 9 9 9 10 10 10 10 10 10 9 9 8 7 8 9 9 10 11 10
8 4 10 4 5 7 4 2 4 3 1 3 3 2 2 1 1 6 11 15 16 16 16 17 16 16 14 13 12 13 13 12 12 12 11 10 8 8 8 8 7 8 8 8 8 7 8 9 10 11 11 10 10 10 10 10 10 11 11 11 10 11 11 12 10 11 11 11 11 11 11 11 10 9 8 7 8 9 9 9 9 10 11 10 10 10 10 10 9 8 8 9 9 11 10 10 10
7 10 8 6 3 4 2 2 1 1 5 2 3 8 6 6 4 8 13 15 15 16 17 16 16 17 16 13 13 14 13 13 11 11 10 11 10 10 9 8 9 10 10 10 9 8 7 7 10 12 11 11 10 10 10 9 10 11 11 11 12 12 11 11 11 11 11 11 11 11 10 11 10 8 7 7 8 9 9 10 9 10 10 11 11 10 11 10 9 7 9 8 10 11 9 9 10
8 6 8 9 5 9 2 2 3 4 3 2 2 6 6 9 5 13 17 16 17 18 18 17 18 17 16 14 15 14 14 13 14 12 10 10 10 9 9 9 10 10 10 10 10 9 9 9 9 11 12 10 10 8 9 9 9 9 10 11 12 11 11 11 11 12 12 12 12 12 12 10 8 8 8 8 8 9 9 9 9 10 10 11 11 10 10 9 9 8 8 8 10 10 10 10 10
3 8 11 1 2 2 7 3 2 3 2 2 3 6 5 8 8 18 18 20 22 21 20 21 20 19 17 15 15 16 15 14 14 11 11 11 11 11 10 11 11 11 10 10 10 9 10 9 10 11 11 10 10 10 9 10 9 9 10 11 11 11 11 12 12 12 12 12 12 11 10 10 9 8 9 9 9 9 9 9 9 9 10 10 11 10 10 10 9 8 8 8 9 11 10 10 11
7 9 8 5 1 3 2 3 2 3 2 3 3 3 5 7 12 20 23 24 24 25 23 18 17 17 16 16 16 16 16 15 13 11 12 12 12 11 10 10 10 10 9 9 9 10 9 8 10 11 12 11 10 9 10 9 9 10 11 12 12 12 12 11 12 12 12 11 11 11 10 9 8 9 9 9 9 9 9 9 10 10 10 10 11 10 10 9 9 9 9 9 10 11 11 10 10
12 11 9 9 7 7 10 7 4 2 3 2 3 1 1 2 1 12 18 18 19 17 18 15 17 16 16 15 16 17 16 15 13 12 11 11 11 11 10 9 9 10 10 11 9 9 9 9 9 10 10 9 10 9 10 10 9 9 11 11 11 11 10 11 12 12 12 12 11 10 10 9 10 9 9 9 10 8 8 9 9 10 10 11 11 11 10 9 9 10 9 8 9 11 11 11 10
Wind_Direction
335 330 319 347 284 11 7 11 284 88 314 267 295 170 289 60 310 253 186 321 287 79 330 42 127 163 193 206 150 77 29 177 75 183 198 63 151 140 141 141 135 136 138 138 136 142 143 138 129 119 118 117 116 117 119 119 119 117 113 108 107 106 105 105 106 107 109 110 111 111 110 110 109 106 105 101 100 101 100 102 104 104 104 101 103 105 105 100 101 100 98 97 99 99 96 96 95
344 320 351 307 28 325 147 308 104 179 98 244 226 62 259 292 299 263 17 282 338 94 89 85 82 84 73 90 111 123 56 16 34 62 86 125 134 134 142 141 141 139 140 138 140 142 142 138 130 122 120 118 118 119 120 119 116 118 115 110 108 109 109 108 107 108 108 109 109 108 108 107 105 101 97 92 87 92 94 99 100 96 95 99 101 106 106 106 103 98 95 91 91 95 98 97 98
350 343 63 51 50 40 99 337 248 164 244 256 221 207 27 277 256 298 329 240 135 140 130 71 100 52 87 128 131 320 126 47 106 112 107 141 140 150 147 144 142 138 138 138 139 142 140 135 133 123 120 119 118 118 118 117 119 121 119 114 112 109 110 110 109 108 108 107 107 107 106 104 98 96 94 94 91 90 87 92 95 97 96 97 102 105 103 101 100 102 96 92 90 90 94 99 103
319 33 37 14 139 313 115 90 207 184 238 265 283 189 231 244 265 334 3 146 143 149 166 83 176 10 264 176 65 90 90 140 130 131 130 162 148 146 144 140 133 133 136 137 138 140 139 132 130 124 120 118 118 117 117 120 123 123 120 115 108 106 105 106 109 107 108 108 106 103 103 101 99 95 93 92 89 86 87 86 85 85 88 89 93 90 95 94 94 93 87 87 87 88 89 90 95
13 28 347 61 159 147 171 164 226 170 238 166 260 128 229 234 298 282 110 126 166 263 139 130 117 26 47 69 27 312 115 94 136 137 138 131 126 137 140 136 133 132 134 136 135 137 134 129 126 122 120 120 119 118 119 121 124 123 118 114 111 108 109 109 112 112 110 108 104 102 98 97 99 97 94 91 87 87 86 86 89 83 80 83 84 90 88 86 84 82 83 84 84 82 82 84 90
74 281 17 328 278 58 84 185 188 213 223 144 247 259 236 227 174 80 137 301 134 242 78 119 124 181 122 30 4 109 112 132 145 119 148 132 136 137 138 136 133 131 129 133 136 136 133 124 124 124 122 121 121 120 121 123 125 123 119 118 115 114 114 116 113 112 109 106 103 99 97 98 99 100 98 91 88 89 87 83 82 84 81 75 75 78 84 88 84 78 78 79 78 77 76 78 79
121 100 15 75 94 298 237 220 227 221 222 185 245 237 177 165 175 338 88 130 89 82 328 131 129 135 117 114 98 79 12 343 179 139 162 131 131 139 136 134 133 129 130 133 137 132 126 119 125 126 123 122 121 121 123 124 126 126 122 119 118 117 116 115 115 115 111 106 104 103 99 96 92 88 88 89 86 83 79 77 74 71 67 68 70 73 76 76 78 80 78 78 79 78 78 78 81
82 235 10 220 153 272 213 230 246 175 240 208 322 278 202 184 183 282 325 246 117 291 98 118 133 104 97 307 136 65 33 34 112 127 130 135 137 138 138 135 132 130 130 132 134 129 119 124 125 124 123 123 123 123 124 125 125 126 124 119 118 115 117 119 118 114 109 105 101 96 91 89 88 89 88 86 84 81 82 80 77 72 69 70 71 72 74 76 78 78 79 81 81 78 78 79 88
27 75 272 152 195 51 154 223 257 166 286 227 256 243 270 219 263 287 281 135 116 173 155 141 129 174 154 118 102 82 53 89 125 129 133 135 138 136 137 138 137 135 133 137 134 127 126 123 125 125 123 123 126 126 125 125 127 127 127 123 115 114 117 120 118 113 111 107 101 97 94 91 89 86 82 77 75 73 74 72 70 69 68 68 69 71 72 72 73 74 75 76 79 81 83 87 92
75 304 167 131 53 223 252 229 220 218 242 289 269 260 266 144 219 214 259 259 227 155 144 144 198 120 135 123 130 105 83 130 130 131 134 135 132 135 137 137 139 136 136 140 136 133 130 126 124 124 125 127 128 127 127 128 130 131 125 117 122 121 119 118 113 113 110 108 105 99 94 90 88 86 80 77 75 74 74 77 77 76 74 71 69 68 67 67 69 69 70 73 72 72 81 95 100
143 44 6 176 192 236 218 234 231 257 258 300 280 261 259 240 240 225 215 250 126 172 150 152 103 130 137 107 93 45 151 142 141 137 137 131 135 135 133 135 136 138 141 140 137 135 131 131 125 122 124 128 125 126 129 128 126 119 112 113 122 124 122 120 120 115 115 113 107 102 98 95 92 88 83 82 81 81 83 81 80 80 76 74 73 71 70 69 71 71 67 68 69 69 80 98 110
147 174 166 203 214 215 214 247 251 257 278 288 274 242 208 225 206 226 215 217 181 165 175 186 167 142 118 142 147 126 150 154 138 136 134 133 133 133 137 132 136 140 141 138 136 136 132 130 131 127 126 128 128 131 132 132 131 125 119 121 114 119 117 116 118 114 113 109 105 102 98 95 95 94 96 94 92 90 88 89 90 90 87 84 81 80 77 75 75 72 69 68 66 70 80 100 124
173 100 150 174 216 209 94 265 247 293 292 235 232 136 112 189 197 215 207 200 181 176 202 192 139 158 138 162 125 140 155 152 141 139 137 138 133 136 135 134 135 139 141 138 138 137 135 135 134 137 133 135 134 133 135 134 132 125 120 121 115 118 122 120 118 118 117 107 103 100 99 99 98 99 97 97 94 92 92 92 92 93 89 85 84 81 79 79 78 77 75 72 67 73 84 105 133
170 192 153 206 54 169 191 229 102 254 243 186 220 191 195 224 222 232 145 179 180 193 164 150 154 145 102 122 158 170 163 153 139 139 135 134 136 133 132 132 135 140 140 139 139 137 138 136 135 135 137 138 135 134 133 134 130 124 118 119 112 106 109 117 111 111 114 111 110 108 106 105 104 102 100 95 92 87 83 84 87 86 88 86 80 80 81 79 79 77 77 75 72 80 92 108 139
186 167 170 16 169 169 189 218 227 205 248 155 140 299 324 216 268 199 196 182 192 80 117 136 154 167 180 170 181 188 165 150 142 139 136 134 133 130 132 134 138 139 139 141 138 138 136 135 135 134 136 138 138 137 138 135 134 129 124 121 111 103 112 114 114 114 116 117 115 115 115 113 109 102 100 97 92 87 84 87 78 82 81 79 82 75 75 74 74 75 76 78 81 80 83 91 134
128 144 86 207 209 203 184 211 148 165 209 167 121 264 326 134 204 192 217 220 131 138 148 155 232 282 142 191 172 162 155 147 145 141 135 132 131 132 133 134 136 139 141 141 135 133 132 136 131 132 133 135 137 137 136 137 136 134 131 121 113 111 114 111 112 117 117 120 115 106 93 101 98 90 81 102 87 84 80 62 80 70 70 73 72 73 70 73 73 74 78 85 89 84 83 87 115
121 317 177 186 231 186 163 198 161 211 324 209 236 15 354 314 63 237 214 161 141 148 89 83 173 306 176 165 131 143 146 146 146 142 138 137 138 136 138 138 140 137 139 137 135 135 133 135 128 129 127 130 131 132 134 133 133 139 138 128 120 116 110 111 112 116 121 109 101 90 96 76 69 65 55 53 71 61 57 81 67 70 61 62 62 61 64 61 71 72 85 88 89 82 82 91 105
169 190 199 220 197 190 176 194 191 55 285 309 319 34 330 280 119 109 125 107 118 127 102 95 75 60 91 109 128 138 143 146 147 146 145 144 146 143 147 146 146 146 144 138 139 133 136 133 128 129 133 132 132 132 136 134 136 139 135 139 137 132 127 124 129 117 108 105 91 95 77 78 68 70 54 48 32 56 85 50 75 59 53 50 57 61 67 63 64 69 87 89 82 84 111 130 127
195 138 202 230 157 198 173 194 221 271 286 301 309 332 293 249 150 161 165 153 149 138 120 132 104 110 113 131 134 141 147 145 149 149 149 151 153 152 150 149 147 144 145 143 137 137 135 127 130 130 131 136 136 135 136 134 137 136 136 137 132 131 126 124 114 99 97 83 80 81 79 69 67 57 55 35 37 43 36 33 45 56 41 39 35 39 41 45 51 49 73 85 76 119 146 115 135
198 195 216 227 185 226 235 222 250 213 287 301 317 344 293 181 168 144 189 166 164 159 142 141 146 141 143 144 141 145 148 149 150 150 151 153 153 152 149 149 150 150 146 147 139 134 137 138 133 134 139 141 140 137 132 130 135 140 138 138 130 121 109 105 96 103 96 85 95 84 82 77 74 72 47 43 147 69 81 76 54 58 55 44 16 13 29 47 37 69 66 87 150 141 107 123 131
140 209 229 209 173 222 232 218 243 263 237 280 308 311 266 168 146 176 152 161 192 188 173 162 165 160 152 152 147 148 149 152 153 153 151 150 151 151 150 151 150 145 141 138 138 141 146 136 134 135 144 146 139 135 131 130 131 134 128 128 118 112 116 112 106 104 90 89 88 105 111 119 127 132 73 29 27 46 35 35 45 22 13 9 6 10 6 6 355 33 96 119 59 52 80 92 106
128 226 112 143 134 224 248 243 219 235 179 235 256 321 15 128 166 171 171 183 188 198 195 269 175 156 155 153 149 148 150 154 156 155 154 153 153 151 149 139 132 131 140 145 140 140 142 136 139 139 146 145 139 134 135 134 135 133 135 125 118 115 121 119 119 111 106 88 90 103 123 135 116 57 45 30 24 8 9 21 25 28 13 7 9 354 22 355 351 17 42 77 87 79 70 71 91
218 150 227 247 216 252 285 213 179 173 222 260 280 264 139 194 177 176 185 322 345 358 110 130 161 161 153 144 144 150 152 153 155 157 155 155 153 146 144 142 141 143 152 142 142 143 142 141 146 145 144 142 138 139 134 129 133 135 126 127 125 125 134 132 124 121 118 124 124 134 220 77 16 18 9 24 25 8 6 11 18 10 10 5 19 0 352 1 347 7 27 74 135 142 128 121 140
244 217 93 240 197 233 243 265 186 255 254 252 181 36 228 177 173 160 166 31 50 116 127 140 148 150 147 141 143 147 149 149 154 156 157 145 139 142 141 143 148 152 143 141 142 147 147 151 148 150 141 139 143 138 124 127 136 144 142 133 129 130 135 130 128 121 122 122 131 143 5 349 341 1 353 2 20 358 353 4 4 351 4 15 26 5 357 4 5 4 351 347 297 154 145 149 147
209 234 218 267 184 233 248 254 276 263 252 259 233 215 228 195 158 154 99 101 106 118 124 134 139 141 139 138 142 149 148 147 153 146 141 136 131 136 144 144 150 150 146 149 145 139 154 152 156 149 143 141 142 137 133 132 138 143 131 125 132 135 129 121 115 131 133 126 144 168 246 290 314 319 341 354 343 350 349 343 341 353 353 12 356 17 7 2 4 354 343 325 319 287 221 181 184
205 220 205 243 250 249 252 264 249 250 249 176 105 87 109 110 116 104 92 115 113 120 124 130 136 137 138 137 141 143 136 135 133 134 131 125 133 145 143 149 150 151 150 147 149 148 154 153 153 147 144 146 145 142 140 143 147 144 140 128 129 121 118 133 164 170 155 169 179 228 252 279 309 331 346 348 339 348 351 346 340 347 2 7 349 354 8 344 352 343 322 318 311 288 274 278 277
167 197 222 242 257 296 285 239 245 222 176 180 127 137 126 112 248 138 125 127 122 123 121 124 128 126 129 135 139 131 124 130 136 132 126 133 141 148 142 145 151 146 147 147 147 150 148 151 147 144 148 151 147 142 146 141 145 138 132 134 128 111 118 139 165 173 193 251 288 283 295 309 324 328 339 345 343 351 15 8 7 354 7 12 357 348 345 335 326 316 322 324 321 316 311 311 304
170 188 226 247 261 256 252 285 257 279 272 181 140 134 311 49 290 109 136 123 124 120 116 115 110 88 78 90 107 115 128 130 128 132 136 145 148 148 147 151 149 149 150 145 148 143 143 151 148 146 148 148 143 144 146 143 143 132 131 128 123 121 143 134 106 73 50 34 0 328 322 328 332 333 339 347 343 349 17 28 18 3 16 12 19 352 333 332 315 312 308 298 305 305 309 305 305
128 170 242 237 257 257 202 227 236 184 196 161 128 114 121 52 81 120 132 123 123 114 101 78 67 58 40 37 79 132 134 132 127 130 138 139 146 152 144 149 146 141 135 148 142 149 144 152 144 142 146 147 143 148 142 142 144 138 139 127 121 136 137 125 40 40 32 34 9 342 342 346 346 350 355 357 350 344 355 12 26 16 35 54 339 345 352 341 316 303 290 286 281 289 289 292 294
123 125 289 276 244 253 222 92 26 172 71 164 162 182 161 74 103 78 126 127 125 102 87 92 87 79 72 39 21 16 68 102 112 124 129 132 145 151 146 146 141 143 141 145 147 145 143 141 135 138 149 147 149 138 131 133 135 138 139 134 129 146 126 62 37 33 23 22 358 2 359 1 358 10 358 355 354 350 357 10 11 25 9 10 358 7 354 346 334 323 315 307 302 291 288 287 292
206 144 236 261 196 224 93 292 140 174 73 194 290 211 139 105 97 84 58 130 106 108 109 101 105 105 99 97 92 44 12 11 92 130 136 142 145 148 147 145 144 146 141 145 144 141 149 141 145 145 145 142 138 128 125 122 132 139 140 138 137 114 79 57 49 41 32 11 2 2 7 3 1 6 4 354 356 356 2 27 28 24 1 9 12 14 349 345 338 326 328 320 314 304 298 298 294
77 165 216 146 214 190 349 21 189 190 100 344 233 124 111 90 110 74 61 98 111 116 122 119 112 103 101 97 87 83 61 303 114 115 131 143 147 148 149 150 150 153 143 146 138 147 150 145 153 143 138 129 121 121 118 123 128 129 122 117 98 79 70 63 54 48 40 355 3 4 5 8 5 13 14 15 19 30 33 35 36 24 30 24 21 16 337 336 332 324 328 326 321 310 302 297 296
24 219 119 192 187 227 278 47 348 355 123 40 336 151 111 104 97 80 72 94 89 100 107 124 118 110 108 104 106 106 126 106 67 84 107 113 127 140 150 154 156 171 151 156 141 147 149 150 146 138 129 124 117 121 122 117 117 113 110 84 69 68 62 56 50 41 38 28 13 17 14 19 23 23 24 41 52 55 54 46 44 33 26 11 351 8 330 345 328 327 320 320 316 313 308 305 301
192 158 204 154 202 168 186 78 45 2 154 137 36 97 57 76 83 83 82 96 83 55 26 61 88 98 112 111 132 118 133 127 121 122 112 100 111 123 124 146 154 157 157 149 139 138 139 136 130 122 122 117 122 120 118 120 112 111 90 71 65 66 62 54 45 48 53 47 49 46 36 32 31 31 37 44 51 53 54 52 49 40 35 31 16 7 11 349 343 329 327 322 324 320 312 309 306
173 163 184 192 145 299 28 97 7 6 30 120 90 80 79 68 84 98 120 123 122 124 125 119 110 127 136 134 144 132 137 131 124 124 123 115 109 106 103 105 114 120 121 118 118 120 110 107 100 112 109 113 115 115 110 105 104 94 91 84 75 76 80 72 80 80 81 77 66 59 52 47 43 41 44 47 49 44 41 38 36 26 17 11 9 359 354 346 332 324 309 315 312 299 301 308 306
149 171 184 165 188 165 144 75 358 357 86 68 85 118 99 85 94 133 161 148 136 134 133 145 137 133 121 128 142 138 139 133 124 124 115 103 96 105 117 109 99 98 101 108 113 110 109 101 103 103 111 115 112 114 121 112 96 74 76 91 79 72 68 68 67 71 75 76 72 70 62 53 48 43 49 48 44 35 30 37 31 23 15 355 0 0 358 353 347 335 333 334 325 318 301 301 309
124 98 163 167 173 96 71 72 25 288 77 60 101 97 96 105 117 143 178 153 115 122 136 145 137 131 130 134 132 127 128 125 118 101 104 107 104 108 97 91 99 105 114 111 98 93 96 115 112 103 110 126 121 118 102 88 93 98 82 77 79 81 79 73 68 61 66 73 80 80 71 56 58 61 55 47 50 47 43 38 31 27 18 17 8 11 2 351 345 341 340 334 326 320 317 320 315
149 153 173 151 198 101 56 42 343 309 132 100 100 90 87 107 121 128 157 150 115 132 141 130 106 70 75 153 135 118 106 92 78 75 73 77 73 82 96 95 86 85 75 70 78 89 93 95 92 96 101 98 104 102 91 83 73 77 94 94 95 92 98 82 75 67 71 75 75 74 72 70 64 65 65 66 65 61 60 59 52 48 40 33 27 19 9 356 357 355 348 333 334 317 314 322 316
70 173 133 165 162 84 126 49 53 72 94 122 111 89 93 99 106 127 102 103 96 79 108 103 84 60 37 6 53 34 58 66 78 73 75 84 89 75 80 77 78 72 76 91 97 91 85 84 82 86 91 102 100 105 105 96 93 92 102 107 99 84 75 88 89 82 77 75 73 72 71 67 62 57 61 67 68 62 62 60 57 53 46 35 27 18 8 8 2 2 352 346 337 329 318 305 310
158 129 167 188 78 205 150 52 69 70 141 139 114 100 102 85 78 78 68 105 94 100 110 104 105 106 95 86 56 20 1 50 56 70 84 100 77 79 83 94 87 91 91 86 86 84 79 80 82 87 86 91 94 93 102 106 103 99 96 101 95 93 95 92 87 81 78 76 71 69 68 67 64 61 53 53 54 51 48 49 54 54 56 49 27 15 12 11 8 3 355 347 335 326 336 321 321
76 216 148 116 135 48 24 109 91 85 95 122 115 97 90 101 109 104 100 117 106 111 116 112 104 109 108 113 106 113 44 1 12 63 79 105 81 76 86 91 84 82 82 83 76 77 76 72 69 74 79 85 90 100 112 117 116 111 109 104 103 100 90 92 88 73 69 71 72 63 59 57 57 54 46 46 47 46 44 42 41 41 41 43 27 13 8 3 7 355 1 344 343 336 326 317 309
201 225 219 122 116 112 114 140 136 102 117 167 156 116 112 125 116 129 135 142 111 128 128 134 128 123 122 138 134 119 101 105 133 70 87 100 97 83 57 55 83 85 80 81 84 82 84 78 77 74 72 62 72 84 100 109 109 114 117 108 82 79 70 58 61 66 67 65 68 69 61 55 53 49 50 45 41 42 39 34 38 44 32 29 34 27 10 5 8 5 0 347 338 331 321 314 314
186 203 160 137 132 127 143 149 176 140 147 162 284 205 127 168 144 150 151 151 124 128 130 133 137 132 137 143 134 129 130 121 100 93 92 87 90 81 75 75 75 91 88 74 71 78 82 82 74 73 68 66 58 57 64 90 86 82 86 87 90 84 90 79 78 78 78 77 75 69 62 53 48 46 42 38 35 34 36 31 31 39 40 32 24 28 18 6 357 10 351 353 341 329 329 319 318
197 79 147 135 130 144 155 124 65 94 66 88 7 11 132 174 179 154 154 147 141 137 140 140 140 139 141 143 138 132 131 131 116 108 97 88 80 87 84 83 92 94 97 91 75 59 66 64 67 68 65 61 49 55 57 56 86 92 97 95 92 89 86 89 79 75 70 72 69 61 60 56 47 43 38 34 34 31 29 25 29 32 41 36 24 29 11 6 2 10 4 360 351 340 340 335 332
175 157 152 153 158 153 142 121 107 126 155 136 167 207 114 174 162 157 161 149 157 156 155 153 148 150 149 154 146 135 129 128 125 124 118 105 92 89 111 97 80 72 66 77 74 67 72 70 65 67 67 63 54 52 60 55 58 66 82 96 95 88 85 79 75 63 60 59 62 56 52 49 49 45 41 35 32 33 32 31 32 25 31 31 23 18 9 11 14 10 11 3 2 346 356 350 342
100 131 82 74 70 73 133 142 116 125 216 173 185 206 143 165 172 168 182 178 177 171 168 163 160 157 156 155 144 131 130 127 119 115 110 97 88 88 89 90 82 79 77 86 79 66 61 70 70 69 64 61 60 59 61 59 55 56 63 69 83 86 84 80 64 60 53 49 59 52 50 47 42 41 39 36 34 35 35 32 28 25 26 23 19 15 7 7 7 5 359 352 352 351 354 352 343
120 130 119 102 73 85 75 59 122 120 239 187 183 190 169 169 196 185 179 192 186 174 161 163 160 159 156 156 143 143 141 136 128 114 98 103 91 85 78 84 89 84 77 79 80 75 72 72 72 70 65 69 64 63 63 64 62 62 68 68 70 73 68 63 64 54 47 46 47 45 44 43 39 36 33 34 31 31 34 31 26 24 23 19 15 14 11 2 356 351 347 347 350 351 348 342 335
148 141 137 122 96 110 106 77 97 211 214 144 189 182 207 194 194 205 212 177 182 172 170 164 163 160 150 147 145 142 140 132 124 116 118 120 105 95 88 87 88 88 83 80 82 78 68 72 82 81 68 63 63 63 64 62 64 65 68 68 67 64 63 63 60 54 45 47 43 42 42 43 38 35 33 34 30 29 31 29 25 24 25 19 19 11 8 358 352 344 351 351 345 343 344 343 338
183 143 152 176 156 153 187 152 204 209 203 87 163 164 162 235 158 204 197 194 189 185 172 165 161 155 148 143 136 130 132 125 125 123 132 124 113 121 110 110 103 92 92 95 91 87 86 83 84 84 72 65 64 65 66 66 66 64 66 70 71 68 66 66 63 58 47 47 43 42 40 42 38 36 34 35 33 32 30 28 26 25 22 20 15 14 9 5 359 356 0 358 353 350 349 344 334
183 179 172 185 173 185 190 168 31 77 12 25 130 116 261 40 213 11 193 192 188 180 173 165 157 152 149 144 139 136 133 129 128 129 134 117 112 123 119 117 109 104 101 101 99 94 90 86 82 82 78 73 73 70 72 72 69 70 70 71 71 70 70 65 61 60 54 53 51 50 47 45 43 41 37 38 34 34 35 31 28 26 23 19 16 13 10 6 4 1 6 7 4 1 354 348 341
192 68 179 207 175 168 181 181 185 173 128 92 89 162 201 181 96 356 331 157 161 168 166 160 153 149 147 145 141 136 136 135 134 136 132 124 125 128 123 120 117 115 109 99 96 97 98 91 85 85 84 79 78 78 76 77 74 70 70 70 68 71 70 70 65 61 60 60 58 58 54 50 48 44 41 40 34 33 31 29 28 25 21 17 15 12 7 6 6 4 10 7 9 5 358 355 350
193 155 34 156 201 77 188 112 176 144 134 114 175 210 5 17 343 311 173 156 154 153 144 148 148 148 150 148 146 145 144 146 148 140 130 127 128 122 112 114 117 111 107 104 99 98 91 88 87 86 88 87 84 82 78 78 77 74 71 70 69 70 73 74 75 71 69 65 65 63 59 56 54 53 50 41 33 33 31 29 27 26 20 18 15 12 9 8 5 7 8 8 6 5 354 357 355
167 153 204 186 89 105 103 105 27 56 130 176 106 115 200 313 158 137 155 147 147 146 147 152 153 155 157 155 153 148 150 151 152 145 139 134 123 118 121 126 124 116 108 102 98 94 98 99 97 93 88 84 82 82 82 80 80 78 73 73 73 73 74 75 75 74 72 69 68 66 64 61 58 54 50 36 35 33 32 28 27 22 21 17 14 12 11 10 8 11 9 7 7 0 358 356 351
108 204 188 79 45 48 146 174 100 210 202 157 168 160 160 182 175 163 144 146 147 148 154 154 157 160 163 163 157 154 153 153 148 142 134 130 124 126 126 127 123 117 115 110 105 99 93 94 99 99 92 87 83 83 81 82 84 81 79 77 76 77 77 76 74 74 72 71 69 67 63 60 55 53 47 40 36 34 32 29 26 24 20 17 14 11 11 11 9 13 9 11 8 0 354 357 355
197 171 126 175 178 209 166 120 176 170 196 145 173 182 185 208 145 159 154 155 161 162 162 160 164 166 163 159 156 153 152 148 148 146 136 128 126 128 129 125 118 114 113 113 112 110 104 98 94 91 90 88 87 84 85 82 82 85 84 81 79 79 77 77 76 75 73 71 69 67 65 62 56 49 43 40 38 35 33 30 27 23 20 17 14 13 10 10 9 11 8 8 6 0 357 357 358
31 126 180 28 340 201 152 202 72 180 187 155 128 163 217 217 183 171 166 173 174 168 167 173 171 169 163 160 159 156 155 155 153 145 135 127 125 130 129 127 127 125 121 116 111 105 100 98 98 96 93 91 88 87 86 85 82 85 87 83 80 79 79 78 76 74 72 71 68 67 66 61 53 48 46 42 40 38 34 33 29 25 22 18 16 14 10 10 11 12 8 7 2 359 357 357 356
153 185 182 176 162 353 23 81 207 206 161 210 129 186 226 210 185 186 181 179 176 174 176 172 166 167 162 159 156 156 157 156 151 137 131 128 129 131 131 132 124 116 111 104 100 99 98 95 95 95 96 93 90 89 87 85 85 84 84 83 83 82 79 76 75 73 74 70 69 67 62 60 56 51 45 43 40 37 35 33 31 29 24 21 18 16 12 11 13 11 11 7 3 0 359 359 352
178 181 184 184 143 169 183 200 75 146 174 182 175 225 202 94 345 203 193 184 174 172 163 160 164 162 160 157 156 157 156 154 137 130 129 128 131 131 130 123 118 111 103 97 98 99 96 95 97 98 96 94 95 92 90 89 85 84 84 84 83 80 75 74 75 74 73 71 67 62 60 57 55 49 46 43 42 38 36 33 32 29 27 24 21 19 16 14 13 12 12 9 3 3 1 358 354